Find GE-1A

NORAD ID: 26554 Int'l Des: 2000-059 Owner: AMCG/GECAP Country: US operational
HEOCIRCULARGSO

リアルタイム位置

3D地球を読み込み中...

GE-1Aについて

説明を読み込み中...

次回通過

Passes for default location (London). Set your location on the main map for personalized predictions.

高度履歴

Loading altitude history...

軌道要素

1 26554U 00059A 26105.12061965 .00000032 00000-0 00000+0 0 9994
2 26554 1.9630 82.1092 0003214 311.3100 29.2960 1.00271816 40653
Epoch: Apr 15, 2026 • Age: 8 hours

現在のステータス

高度 35797.3 km
速度 3.07 km/s
衛星直下点 1.93°N, 176.02°E
打ち上げ日 Oct 1, 2000
運用期間 25.5 years
タイプ other

技術仕様

分類 Payload
質量 3593.00 kg
乾燥質量 1601.00 kg
総質量 3593.00 kg
長さ 6.10 m
直径 2.50 m
スパン 27.00 m
形状 Box + 2 Pan
製造者 LMCSS
バスタイプ A2100AX
フェーズステータス Unknown Active Status
所有者/国 AMCG/GECAP/US

Most Searched